User: anonymous   Login
Location: Unspecified
(0.0000°N, 0.0000°E)
Time: 17:32:04
(UTC+00:00)
Language:

COSMOS 2484 - Orbit

View from above orbital plane
View from above orbital plane
View from above satellite
View from above satellite

Ground track
Ground track

The orbit data is extracted from the following two-line orbital elements,

1 39059U 13001C   18049.72100194 +.00000007 +00000-0 -17537-4 0  9992
2 39059 082.5065 312.3015 0024129 185.5109 174.5702 12.42892016231058
Epoch (UTC): 18 February 2018 17:18:14
Eccentricity: 0.0024129
inclination: 82.5065°
perigee height: 1475 km
apogee height: 1513 km
right ascension of ascending node: 312.3015°
argument of perigee: 185.5109°
revolutions per day: 12.42892016
mean anomaly at epoch: 174.5702°
orbit number at epoch: 23105

The dashed part of the orbit path shows where the satellite is in the earth's shadow,  

DLR